www.pogodaiklimat.ru

Погода и климат >> Архив погоды >> Греция >> Sitia


ПОГОДА в Sitia

  • Прогноз погоды в Sitia
  • Монитор погоды в Sitia
  • Климат города

АРХИВ ПОГОДЫ в Sitia

Время (UTC), дата Ветер
(напр.,м/с)
 
Видим.   Явления Облачность Т
(С)
Тd
(С)
f
(%)
Тe
(С)
Тes
(С)
Комфортность P
(гПа)
Po
(гПа)
Тmin
(С)
Tmax
(С)
R
(мм)
R24
(мм)
S
(см)
12 9.10 СЗ 7
{13}
10 км 5/5 600 м
[Sc]
+21.2 +14.7 66 +24 +25 комфорт 1016.1 1016.0
15 9.10 СЗ 8
{13}
10 км 5/5 600 м
[Sc]
+20.8 +13.5 63 +23 +23 комфорт 1016.1 1016.0
18 9.10 СЗ 9
{13}
н/о осадки н/о +20.4 +14.3 68 +22 +22 комфорт 1016.8 1003.7 +22.4 0.0
21 9.10 З 9
{12}
н/о осадки н/о +20.1 +14.9 72 +22 +22 комфорт 1016.9 1003.7
00 10.10 СЗ 7
{12}
н/о осадки н/о +19.8 +14.8 73 +21 +21 комфорт 1016.2 1003.0 0.0
03 10.10 СЗ 7
{12}
н/о осадки н/о +19.8 +14.9 73 +21 +21 комфорт 1015.9 1002.7
06 10.10 СЗ 9
{12}
н/о осадки н/о +20.2 +15.1 72 +22 +22 комфорт 1016.6 1003.4 +19.6 0.0
09 10.10 З 8
{12}
н/о осадки н/о +21.2 +14.7 66 +24 +24 комфорт 1017.4 1004.2
12 10.10 СЗ 9
{13}
н/о осадки н/о +21.4 +15.2 68 +25 +25 комфорт 1016.6 1003.4 0.0
15 10.10 СЗ 8
{12}
н/о осадки н/о +20.6 +16.1 75 +23 +23 комфорт 1016.5 1003.3
18 10.10 СЗ 9
{12}
н/о осадки н/о +20.1 +15.6 75 +22 +22 комфорт 1017.3 1004.1 +22.1 0.0
21 10.10 СЗ 9
{12}
н/о осадки н/о +19.9 +15.3 75 +21 +21 комфорт 1017.4 1004.2
00 11.10 СЗ 8
{14}
н/о осадки н/о +19.9 +15.1 74 +22 +22 комфорт 1017.0 1003.8 0.0
03 11.10 СЗ 9
{14}
н/о осадки н/о +20.2 +15.2 73 +22 +22 комфорт 1016.6 1003.4
06 11.10 СЗ 10
{15}
10 км 5/5 600 м
[Sc]
+20.0 +14.0 68 +21 +21 комфорт 1017.5 1018.0 +19.6
09 11.10 СЗ 9
{14}
10 км 5/5 600 м
[Sc]
+21.2 +14.0 63 +24 +24 комфорт 1018.5 1019.0
12 11.10 СЗ 8
{14}
10 км 5/5 600 м
[Sc]
+20.8 +13.8 64 +23 +24 комфорт 1017.6 1018.0
15 11.10 З 9
{15}
10 км 5/5 600 м
[Sc]
+20.4 +13.6 65 +22 +22 комфорт 1017.1 1017.0
18 11.10 СЗ 8
{15}
10 км 5/5 600 м
[Sc]
+20.0 +14.0 68 +21 +21 комфорт 1018.0 1018.0 +21.8
21 11.10 З 9
{15}
н/о осадки н/о +19.6 +13.7 69 +20 +20 1018.1 1004.9
00 12.10 З 10
{14}
н/о осадки н/о +19.5 +14.2 71 +20 +20 1017.0 1003.8 0.0
03 12.10 СЗ 10
{14}
н/о осадки н/о +19.9 +16.1 79 +22 +22 комфорт 1016.3 1003.1
06 12.10 СЗ 9 10 км 6/4 600 м
[Cu med, cong Ac trans Cc]
+20.0 +15.7 76 +22 +22 комфорт 1017.7 1004.2 +19.4
09 12.10 СЗ 8
{11}
н/о осадки н/о +20.6 +15.3 72 +23 +23 комфорт 1018.4 1005.2
12 12.10 СЗ 9
{12}
н/о осадки н/о +20.6 +15.2 71 +23 +23 комфорт 1017.6 1004.4 0.0
15 12.10 З 8
{11}
н/о осадки н/о +20.2 +15.5 74 +22 +22 комфорт 1017.3 1004.1
18 12.10 СЗ 7
{12}
н/о осадки н/о +19.9 +14.9 73 +22 +22 комфорт 1018.4 1005.2 +22.0 0.0
21 12.10 З 6
{11}
н/о осадки н/о +19.6 +15.0 75 +21 +21 комфорт 1018.0 1004.8
00 13.10 З 7
{10}
н/о осадки н/о +19.5 +14.7 74 +21 +21 комфорт 1017.2 1004.0 0.0
03 13.10 З 6
{11}
н/о осадки н/о +19.5 +15.0 75 +21 +21 комфорт 1016.9 1003.7
06 13.10 З 6
{9}
н/о осадки н/о +20.0 +15.5 75 +22 +22 комфорт 1017.5 1004.3 +18.8 0.0
09 13.10 СЗ 6
{9}
н/о в посл. час осадки н/о +22.0 +16.5 71 +26 +26 душно 1018.1 1005.0
12 13.10 СЗ 6
{9}
10 км 5/5 540 м
[Cu Sc]
+22.0 +17.1 74 +26 +28 душно 1017.5 1004.8
15 13.10 СЗ 5
{8}
н/о осадки н/о +21.2 +16.9 76 +25 +25 комфорт 1017.8 1004.6
18 13.10 СЗ 5
{7}
н/о осадки н/о +20.5 +17.2 81 +24 +24 комфорт 1018.7 1005.5 +22.6 0.0
21 13.10 СЗ 6
{9}
н/о осадки н/о +20.3 +17.1 82 +23 +23 комфорт 1019.1 1005.9
00 14.10 СЗ 5
{8}
н/о осадки н/о +20.0 +16.5 80 +23 +23 комфорт 1018.8 1005.6 0.0
03 14.10 З 6
{8}
н/о осадки н/о +19.7 +16.4 81 +22 +22 комфорт 1018.6 1005.3
06 14.10 З 6 10 км 4/4 600 м
[Sc diur, vesp]
+20.2 +16.1 77 +23 +23 комфорт 1019.1 1019.0 +19.4
09 14.10 СЗ 6
{9}
10 км 4/4 600 м
[Sc diur, vesp]
+21.4 +16.5 74 +25 +27 комфорт 1019.3 1019.0
12 14.10 СЗ 5
{9}
10 км 5/5 600 м
[Sc diur, vesp]
+21.8 +16.4 71 +26 +28 душно 1018.1 1018.0
15 14.10 СЗ 6
{8}
10 км 4/4 600 м
[Sc diur, vesp]
+20.6 +16.0 75 +24 +24 комфорт 1017.9 1018.0
18 14.10 З 5
{7}
н/о осадки н/о +20.0 +16.3 79 +23 +23 комфорт 1018.5 1005.3 +22.6 0.0
21 14.10 З 5
{8}
н/о осадки н/о +19.9 +15.8 77 +22 +22 комфорт 1018.4 1005.2
00 15.10 СЗ 6
{8}
н/о осадки н/о +19.4 +15.7 79 +21 +21 комфорт 1017.7 1004.5 0.0
03 15.10 СЗ 5
{8}
н/о осадки н/о +19.4 +15.5 78 +21 +21 комфорт 1017.1 1003.9
06 15.10 З 6
{9}
н/о осадки н/о +20.3 +15.3 73 +23 +23 комфорт 1017.7 1004.5 +19.2 0.0
09 15.10 СЗ 6
{10}
н/о осадки н/о +21.6 +15.9 70 +25 +25 комфорт 1018.5 1005.3
12 15.10 З 6
{9}
н/о осадки н/о +21.6 +15.9 70 +25 +25 комфорт 1017.7 1004.5 0.0
15 15.10 З 5
{8}
10 км 6/5 600 м
[Sc Ac trans]
+21.0 +15.6 71 +24 +25 комфорт 1018.0 1004.8
18 15.10 З 5
{8}
н/о осадки н/о +20.3 +16.2 77 +23 +23 комфорт 1018.7 1005.5 +22.6 0.0
21 15.10 СЗ 5
{8}
н/о осадки н/о +19.9 +15.9 78 +22 +22 комфорт 1018.9 1005.6
00 16.10 З 5
{7}
н/о осадки н/о +20.0 +16.1 78 +22 +22 комфорт 1018.6 1005.4 0.0
03 16.10 З 7
{9}
н/о осадки н/о +19.4 +15.6 79 +21 +21 комфорт 1018.2 1004.9
06 16.10 СЗ 7 10 км 9/9 750 м
[Cu Sc]
+20.0 +15.2 74 +22 +22 комфорт 1018.9 1019.0 +19.2
09 16.10 СЗ 7
{11}
10 км 6/6 750 м
[Cu Sc]
+21.2 +16.0 72 +25 +26 комфорт 1019.1 1019.0

 

Местоположение метеостанции Sitia (Греция): широта 35.20 долгота 26.10 высота над уровнем моря 28 м.

В архиве по умолчанию представлена погода в Sitia за последнюю неделю. Архивные данные за месяц целиком и за предыдущие месяцы, начиная с января 2011 года, Вы можете получить, выбрав интересующий диапазон дат из раскрывающегося списка и нажав кнопку "Ввод!".


*Определитесь, кто Вы:
робот инопланетянин человек

Внимание! Время в таблицах - всемирное. Для получения местного времени необходимо прибавить поправку, которая в Sitia равна 2 ч.

Смотрите также архив погоды в соседних городах и на ближайших метеорологических станциях:

Погода в Kasteli (Греция) (71 км)
Погода в Heraklion (Греция) (85 км)
Погода в Karpathos (Греция) (110 км)
Погода в Souda (Греция) (182 км)
Погода в Kos Airport (Греция) (196 км)
Погода в Datca (Турция) (219 км)
Погода в Naxos (Греция) (221 км)
Погода в Rhodes (Греция) (223 км)
Погода в Milos (Греция) (225 км)
Погода в Bodrum (Турция) (236 км)

Пояснения к столбцам:

Ветер - указаны скорость ветра в м/с - средняя за 10 мин, порывы в срок и между сроками (в фигурных скобках) и направление, откуда дует ветер: С - северный, СВ - северо-восточный, В - восточный, ЮВ - юго-восточный, Ю - южный, ЮЗ - юго-западный, З - западный, СЗ - северо-западный.
Видимость - горизонтальная дальность видимости в метрах или километрах. При видимости от 1 до 10 км при отсутствии осадков обычно наблюдается дымка, при ухудшении видимости до 1 км и менее - туман. В сухую погоду видимость может ухудшаться дымом, пылью или мглою.
Явления - указаны атмосферные явления, наблюдавшиеся в срок или в последний час перед сроком; фигурными скобками обозначены явления, наблюдавшиеся между сроками (за 1-3 часа до срока); квадратными скобками обозначены град или гололедные отложения с указанием их диаметра в мм.
Облачность - указаны через наклонную черту общая и нижняя облачность в баллах и высота нижней границы облаков в метрах; квадратными скобками обозначены формы облаков: Ci - перистые, Cs - перисто-слоистые, Cc - перисто-кучевые, Ac - высококучевые, As - высокослоистые, Sc - слоисто-кучевые, Ns - слоисто-дождевые, Cu - кучевые, Cb - кучево-дождевые. Подробнее классификацию облаков см. в Атласе облаков (PDF).
T - Температура воздуха - температура, измеренная на высоте 2 м над землей.
Td - Температура точки росы - температура, при понижении до которой содержащийся в воздухе водяной пар достигнет насыщения.
f - Относительная влажность воздуха - влажноcть воздуха, измеренная на высоте 2 м над землей.
Te - Эффективная температура - температура, которую ощущает одетый по сезону человек в тени. Характеристика душности погоды. При расчете учитывается влияние влажности воздуха и скорости ветра на теплоощущения человека.
Tes - Эффективная температура на солнце - температура, которую ощущает человек, с поправкой на солнечный нагрев. Характеристика знойности погоды. Зависит от высоты солнца над горизонтом, облачности и скорости ветра. Ночью, в пасмурную погоду, а также при ветре 12 м/с и более поправка равна нулю.
P - Атмосферное давление - приведенное к уровню моря атмосферное давление.
Po - Атмосферное давление - измеренное на уровне метеостанции атмосферное давление.
Tmin - Минимальная температура - минимум температуры воздуха на высоте 2 м над землей.
Tmax - Максимальная температура - максимум температуры воздуха на высоте 2 м над землей.
R - Количество осадков - Количество выпавших осадков за период времени, мм. При наведении курсора мыши на число - период времени, за который выпало указанное количество осадков.
R24 - Количество осадков - Количество выпавших осадков за 24 часа, мм.
S - Снежный покров - Высота снежного покрова, см. При наведении курсора мыши на число - состояние снежного покрова и степень покрытия местности в баллах.